Time,TemperatureF,DewpointF,PressureIn,WindDirection,WindDirectionDegrees,WindSpeedMPH,WindSpeedGustMPH,Humidity,HourlyPrecipIn,Conditions,Clouds,dailyrainin,SoftwareType,DateUTC
2013-06-22 00:03:00,65.3,60.3,29.95,NW,305,5.0,23.0,84,0.00,,,1.69,VWS V14.01,2013-06-22 05:03:00,
2013-06-22 00:08:00,65.5,60.9,29.94,West,260,4.0,9.0,85,0.00,,,0.00,VWS V14.01,2013-06-22 05:08:00,
2013-06-22 00:13:00,65.6,61.0,29.93,WSW,247,1.0,9.0,85,0.00,,,0.00,VWS V14.01,2013-06-22 05:13:00,
2013-06-22 00:18:00,65.7,61.1,29.92,SW,233,0.0,9.0,85,0.00,,,0.00,VWS V14.01,2013-06-22 05:18:00,
2013-06-22 00:23:00,65.8,61.2,29.90,West,262,0.0,9.0,85,0.00,,,0.00,VWS V14.01,2013-06-22 05:23:00,
2013-06-22 00:28:00,65.7,61.1,29.90,South,179,0.0,9.0,85,0.01,,,0.01,VWS V14.01,2013-06-22 05:28:00,
2013-06-22 00:33:00,65.7,61.1,29.90,WSW,241,1.0,9.0,85,0.01,,,0.01,VWS V14.01,2013-06-22 05:33:00,
2013-06-22 00:38:00,65.7,61.4,29.89,West,262,3.0,3.0,86,0.01,,,0.01,VWS V14.01,2013-06-22 05:38:00,
2013-06-22 00:43:00,65.7,61.1,29.88,WSW,256,0.0,3.0,85,0.03,,,0.03,VWS V14.01,2013-06-22 05:43:00,
2013-06-22 00:48:00,65.6,61.0,29.87,ESE,112,0.0,3.0,85,0.04,,,0.04,VWS V14.01,2013-06-22 05:48:00,
2013-06-22 00:53:00,65.4,60.8,29.85,ESE,112,0.0,3.0,85,0.04,,,0.04,VWS V14.01,2013-06-22 05:53:00,
2013-06-22 00:58:00,65.3,60.7,29.86,ESE,112,2.0,3.0,85,0.05,,,0.05,VWS V14.01,2013-06-22 05:58:00,
2013-06-22 01:04:00,65.2,60.2,29.85,South,177,0.0,0.0,84,0.05,,,0.05,VWS V14.01,2013-06-22 06:04:00,
2013-06-22 01:09:00,65.1,60.2,29.85,WSW,237,0.0,2.0,84,0.05,,,0.05,VWS V14.01,2013-06-22 06:09:00,
2013-06-22 01:14:00,65.0,60.4,29.86,ENE,60,1.0,3.0,85,0.07,,,0.07,VWS V14.01,2013-06-22 06:14:00,
2013-06-22 01:19:00,65.1,60.5,29.86,WNW,301,1.0,4.0,85,0.08,,,0.08,VWS V14.01,2013-06-22 06:19:00,
2013-06-22 01:24:00,65.2,60.6,29.85,SSW,204,0.0,4.0,85,0.09,,,0.09,VWS V14.01,2013-06-22 06:24:00,
2013-06-22 01:29:00,65.2,60.6,29.86,NNE,25,0.0,4.0,85,0.15,,,0.15,VWS V14.01,2013-06-22 06:29:00,
2013-06-22 01:34:00,65.4,60.8,29.87,West,263,1.0,2.0,85,0.18,,,0.19,VWS V14.01,2013-06-22 06:34:00,
2013-06-22 01:39:00,65.6,61.0,29.88,SSE,156,0.0,3.0,85,0.19,,,0.20,VWS V14.01,2013-06-22 06:39:00,
2013-06-22 01:44:00,65.7,61.1,29.89,SSE,156,0.0,3.0,85,0.19,,,0.20,VWS V14.01,2013-06-22 06:44:00,
2013-06-22 01:49:00,65.9,61.3,29.89,South,187,0.0,4.0,85,0.20,,,0.21,VWS V14.01,2013-06-22 06:49:00,
2013-06-22 01:54:00,66.2,61.6,29.90,ENE,73,1.0,4.0,85,0.20,,,0.21,VWS V14.01,2013-06-22 06:54:00,
2013-06-22 02:00:00,66.3,61.7,29.90,ESE,102,0.0,4.0,85,0.21,,,0.22,VWS V14.01,2013-06-22 07:00:00,
2013-06-22 02:05:00,66.3,61.7,29.91,ESE,102,0.0,0.0,85,0.17,,,0.22,VWS V14.01,2013-06-22 07:05:00,
2013-06-22 02:10:00,66.3,61.3,29.92,SW,226,0.0,2.0,84,0.18,,,0.23,VWS V14.01,2013-06-22 07:10:00,
2013-06-22 02:15:00,66.3,61.3,29.93,WSW,241,0.0,2.0,84,0.18,,,0.23,VWS V14.01,2013-06-22 07:15:00,
2013-06-22 02:20:00,66.3,61.7,29.93,WSW,251,0.0,2.0,85,0.19,,,0.24,VWS V14.01,2013-06-22 07:20:00,
2013-06-22 02:25:00,66.2,61.6,29.93,East,79,0.0,2.0,85,0.20,,,0.25,VWS V14.01,2013-06-22 07:25:00,
2013-06-22 02:30:00,66.3,61.7,29.94,West,264,0.0,2.0,85,0.21,,,0.26,VWS V14.01,2013-06-22 07:30:00,
2013-06-22 02:35:00,66.2,61.6,29.93,West,260,1.0,2.0,85,0.08,,,0.27,VWS V14.01,2013-06-22 07:35:00,
2013-06-22 02:40:00,66.1,61.5,29.93,WSW,249,1.0,4.0,85,0.10,,,0.29,VWS V14.01,2013-06-22 07:40:00,
2013-06-22 02:45:00,65.9,60.9,29.93,WSW,249,3.0,9.0,84,0.11,,,0.30,VWS V14.01,2013-06-22 07:45:00,
2013-06-22 02:51:00,65.7,60.7,29.93,WSW,251,1.0,9.0,84,0.13,,,0.32,VWS V14.01,2013-06-22 07:51:00,
2013-06-22 02:56:00,65.5,60.5,29.93,WSW,250,2.0,9.0,84,0.14,,,0.33,VWS V14.01,2013-06-22 07:56:00,
2013-06-22 03:01:00,65.4,60.5,29.93,WSW,256,0.0,9.0,84,0.16,,,0.35,VWS V14.01,2013-06-22 08:01:00,
2013-06-22 03:06:00,65.3,60.0,29.93,WSW,249,0.0,2.0,83,0.15,,,0.37,VWS V14.01,2013-06-22 08:06:00,
2013-06-22 03:11:00,65.2,59.9,29.92,West,272,1.0,5.0,83,0.17,,,0.39,VWS V14.01,2013-06-22 08:11:00,
2013-06-22 03:16:00,65.0,59.7,29.92,West,268,0.0,5.0,83,0.19,,,0.41,VWS V14.01,2013-06-22 08:16:00,
2013-06-22 03:21:00,64.9,59.6,29.92,West,267,0.0,5.0,83,0.21,,,0.43,VWS V14.01,2013-06-22 08:21:00,
2013-06-22 03:26:00,64.9,59.6,29.91,West,268,0.0,5.0,83,0.22,,,0.44,VWS V14.01,2013-06-22 08:26:00,
2013-06-22 03:31:00,64.8,59.2,29.91,West,267,0.0,5.0,82,0.23,,,0.45,VWS V14.01,2013-06-22 08:31:00,
2013-06-22 03:36:00,64.7,59.1,29.91,West,268,0.0,0.0,82,0.19,,,0.46,VWS V14.01,2013-06-22 08:36:00,
2013-06-22 03:42:00,64.7,59.1,29.91,West,268,0.0,0.0,82,0.20,,,0.47,VWS V14.01,2013-06-22 08:42:00,
2013-06-22 03:47:00,64.7,59.1,29.91,West,268,0.0,1.0,82,0.22,,,0.49,VWS V14.01,2013-06-22 08:47:00,
2013-06-22 03:52:00,64.6,59.0,29.91,West,268,0.0,1.0,82,0.23,,,0.50,VWS V14.01,2013-06-22 08:52:00,
2013-06-22 03:57:00,64.6,59.0,29.91,West,271,1.0,2.0,82,0.24,,,0.51,VWS V14.01,2013-06-22 08:57:00,
2013-06-22 04:02:00,64.6,58.7,29.91,West,270,0.0,2.0,81,0.25,,,0.52,VWS V14.01,2013-06-22 09:02:00,
2013-06-22 04:07:00,64.5,58.5,29.91,West,270,1.0,2.0,81,0.16,,,0.52,VWS V14.01,2013-06-22 09:07:00,
2013-06-22 04:12:00,64.5,58.5,29.92,WNW,297,2.0,3.0,81,0.17,,,0.53,VWS V14.01,2013-06-22 09:12:00,
2013-06-22 04:17:00,64.5,58.2,29.92,WNW,299,0.0,3.0,80,0.18,,,0.54,VWS V14.01,2013-06-22 09:17:00,
2013-06-22 04:22:00,64.5,58.5,29.91,WNW,288,0.0,3.0,81,0.20,,,0.56,VWS V14.01,2013-06-22 09:22:00,
2013-06-22 04:27:00,64.5,58.2,29.91,WNW,301,1.0,3.0,80,0.22,,,0.58,VWS V14.01,2013-06-22 09:27:00,
2013-06-22 04:32:00,64.5,58.2,29.91,WNW,300,2.0,3.0,80,0.23,,,0.59,VWS V14.01,2013-06-22 09:32:00,
2013-06-22 04:37:00,64.5,58.2,29.92,West,265,1.0,3.0,80,0.15,,,0.60,VWS V14.01,2013-06-22 09:37:00,
2013-06-22 04:42:00,64.5,58.2,29.91,NW,320,0.0,4.0,80,0.17,,,0.62,VWS V14.01,2013-06-22 09:42:00,
2013-06-22 04:48:00,64.4,58.1,29.91,NW,320,0.0,4.0,80,0.18,,,0.63,VWS V14.01,2013-06-22 09:48:00,
2013-06-22 04:53:00,64.4,58.1,29.91,NW,320,0.0,4.0,80,0.19,,,0.64,VWS V14.01,2013-06-22 09:53:00,
2013-06-22 04:58:00,64.4,58.1,29.91,NW,320,0.0,4.0,80,0.20,,,0.65,VWS V14.01,2013-06-22 09:58:00,
2013-06-22 05:03:00,64.4,58.1,29.92,NW,320,0.0,4.0,80,0.20,,,0.65,VWS V14.01,2013-06-22 10:03:00,
2013-06-22 05:08:00,64.3,58.0,29.91,NW,320,0.0,0.0,80,0.13,,,0.65,VWS V14.01,2013-06-22 10:08:00,
2013-06-22 05:13:00,64.3,58.0,29.91,WNW,285,0.0,2.0,80,0.14,,,0.66,VWS V14.01,2013-06-22 10:13:00,
2013-06-22 05:18:00,64.3,58.0,29.91,WNW,285,0.0,2.0,80,0.15,,,0.67,VWS V14.01,2013-06-22 10:18:00,
2013-06-22 05:23:00,64.3,57.7,29.92,WNW,285,0.0,2.0,79,0.15,,,0.67,VWS V14.01,2013-06-22 10:23:00,
2013-06-22 05:28:00,64.4,57.8,29.93,North,4,0.0,2.0,79,0.16,,,0.68,VWS V14.01,2013-06-22 10:28:00,
2013-06-22 05:33:00,64.5,57.8,29.94,NW,320,0.0,0.0,79,0.09,,,0.68,VWS V14.01,2013-06-22 10:33:00,
2013-06-22 05:38:00,64.5,57.8,29.95,WNW,285,1.0,5.0,79,0.10,,,0.69,VWS V14.01,2013-06-22 10:38:00,
2013-06-22 05:44:00,64.5,57.8,29.95,WNW,287,1.0,5.0,79,0.10,,,0.69,VWS V14.01,2013-06-22 10:44:00,
2013-06-22 05:49:00,64.5,57.8,29.96,West,260,1.0,5.0,79,0.10,,,0.69,VWS V14.01,2013-06-22 10:49:00,
2013-06-22 05:54:00,64.5,57.8,29.94,North,350,0.0,5.0,79,0.10,,,0.69,VWS V14.01,2013-06-22 10:54:00,
2013-06-22 05:59:00,64.5,57.8,29.93,North,350,0.0,5.0,79,0.11,,,0.70,VWS V14.01,2013-06-22 10:59:00,
2013-06-22 06:04:00,64.5,57.8,29.90,SE,137,1.0,2.0,79,0.05,,,0.70,VWS V14.01,2013-06-22 11:04:00,
2013-06-22 06:09:00,64.5,58.2,29.86,West,263,0.0,2.0,80,0.05,,,0.70,VWS V14.01,2013-06-22 11:09:00,
2013-06-22 06:14:00,64.4,58.1,29.86,ESE,117,1.0,8.0,80,0.05,,,0.70,VWS V14.01,2013-06-22 11:14:00,
2013-06-22 06:19:00,64.4,57.8,29.87,SSE,151,0.0,8.0,79,0.05,,,0.70,VWS V14.01,2013-06-22 11:19:00,
2013-06-22 06:24:00,64.4,57.8,29.87,ESE,114,0.0,8.0,79,0.05,,,0.70,VWS V14.01,2013-06-22 11:24:00,
2013-06-22 06:29:00,64.5,57.8,29.86,South,186,2.0,8.0,79,0.05,,,0.70,VWS V14.01,2013-06-22 11:29:00,
2013-06-22 06:35:00,64.5,57.8,29.85,SE,128,1.0,5.0,79,0.02,,,0.70,VWS V14.01,2013-06-22 11:35:00,
2013-06-22 06:40:00,64.5,57.8,29.85,ESE,122,2.0,6.0,79,0.02,,,0.70,VWS V14.01,2013-06-22 11:40:00,
2013-06-22 06:45:00,64.6,58.0,29.85,ESE,122,5.0,6.0,79,0.02,,,0.70,VWS V14.01,2013-06-22 11:45:00,
2013-06-22 06:50:00,64.6,58.0,29.85,SE,135,1.0,6.0,79,0.02,,,0.70,VWS V14.01,2013-06-22 11:50:00,
2013-06-22 06:55:00,64.6,58.0,29.85,ENE,73,1.0,6.0,79,0.02,,,0.70,VWS V14.01,2013-06-22 11:55:00,
2013-06-22 07:00:00,64.6,58.0,29.85,SE,132,1.0,6.0,79,0.02,,,0.70,VWS V14.01,2013-06-22 12:00:00,
2013-06-22 07:05:00,64.7,58.0,29.83,East,97,1.0,3.0,79,0.00,,,0.70,VWS V14.01,2013-06-22 12:05:00,
2013-06-22 07:10:00,64.7,58.0,29.82,SSE,156,1.0,3.0,79,0.00,,,0.70,VWS V14.01,2013-06-22 12:10:00,
2013-06-22 07:15:00,64.8,58.1,29.82,ENE,59,1.0,10.0,79,0.00,,,0.70,VWS V14.01,2013-06-22 12:15:00,
2013-06-22 07:20:00,64.8,58.1,29.81,East,87,2.0,10.0,79,0.00,,,0.70,VWS V14.01,2013-06-22 12:20:00,
2013-06-22 07:25:00,64.9,58.2,29.81,WSW,258,3.0,10.0,79,0.00,,,0.70,VWS V14.01,2013-06-22 12:25:00,
2013-06-22 07:30:00,65.0,58.3,29.81,SE,131,4.0,10.0,79,0.00,,,0.70,VWS V14.01,2013-06-22 12:30:00,
2013-06-22 07:36:00,65.0,58.3,29.81,East,89,2.0,4.0,79,0.00,,,0.70,VWS V14.01,2013-06-22 12:36:00,
2013-06-22 07:41:00,65.1,58.4,29.81,SE,133,2.0,8.0,79,0.00,,,0.70,VWS V14.01,2013-06-22 12:41:00,
2013-06-22 07:46:00,65.1,58.4,29.82,SE,140,2.0,8.0,79,0.00,,,0.70,VWS V14.01,2013-06-22 12:46:00,
2013-06-22 07:51:00,65.1,58.4,29.83,South,179,1.0,8.0,79,0.00,,,0.70,VWS V14.01,2013-06-22 12:51:00,
2013-06-22 07:56:00,65.2,58.5,29.85,SSE,155,2.0,8.0,79,0.00,,,0.70,VWS V14.01,2013-06-22 12:56:00,
2013-06-22 08:01:00,65.2,58.5,29.87,East,94,2.0,8.0,79,0.00,,,0.70,VWS V14.01,2013-06-22 13:01:00,
2013-06-22 08:06:00,65.3,59.0,29.86,East,97,3.0,6.0,80,0.00,,,0.70,VWS V14.01,2013-06-22 13:06:00,
2013-06-22 08:11:00,65.3,59.0,29.87,ESE,102,3.0,6.0,80,0.00,,,0.70,VWS V14.01,2013-06-22 13:11:00,
2013-06-22 08:16:00,65.4,59.1,29.86,ESE,102,2.0,6.0,80,0.00,,,0.70,VWS V14.01,2013-06-22 13:16:00,
2013-06-22 08:21:00,65.6,59.3,29.85,East,92,2.0,7.0,80,0.00,,,0.70,VWS V14.01,2013-06-22 13:21:00,
2013-06-22 08:26:00,65.7,59.4,29.87,SE,138,5.0,7.0,80,0.00,,,0.70,VWS V14.01,2013-06-22 13:26:00,
2013-06-22 08:31:00,65.8,59.5,29.87,SW,220,0.0,7.0,80,0.00,,,0.70,VWS V14.01,2013-06-22 13:31:00,
2013-06-22 08:37:00,66.0,59.7,29.87,East,91,3.0,7.0,80,0.00,,,0.70,VWS V14.01,2013-06-22 13:37:00,
2013-06-22 08:42:00,66.1,60.5,29.89,NW,319,2.0,7.0,82,0.00,,,0.70,VWS V14.01,2013-06-22 13:42:00,
2013-06-22 08:47:00,66.2,60.5,29.89,SE,133,3.0,7.0,82,0.00,,,0.70,VWS V14.01,2013-06-22 13:47:00,
2013-06-22 08:52:00,66.3,61.0,29.90,ESE,110,4.0,10.0,83,0.00,,,0.70,VWS V14.01,2013-06-22 13:52:00,
2013-06-22 08:57:00,66.4,60.7,29.91,WSW,248,0.0,10.0,82,0.00,,,0.70,VWS V14.01,2013-06-22 13:57:00,
2013-06-22 09:02:00,66.6,60.9,29.92,SSE,168,0.0,10.0,82,0.00,,,0.70,VWS V14.01,2013-06-22 14:02:00,
2013-06-22 09:07:00,66.7,60.7,29.92,SSE,168,0.0,0.0,81,0.00,,,0.70,VWS V14.01,2013-06-22 14:07:00,
2013-06-22 09:12:00,66.7,61.0,29.92,North,10,0.0,2.0,82,0.00,,,0.70,VWS V14.01,2013-06-22 14:12:00,
2013-06-22 09:17:00,66.7,61.4,29.92,SSE,151,0.0,2.0,83,0.00,,,0.70,VWS V14.01,2013-06-22 14:17:00,
2013-06-22 09:22:00,66.6,61.3,29.92,SSE,151,0.0,2.0,83,0.00,,,0.70,VWS V14.01,2013-06-22 14:22:00,
2013-06-22 09:27:00,66.7,61.0,29.92,SSE,150,0.0,2.0,82,0.00,,,0.70,VWS V14.01,2013-06-22 14:27:00,
2013-06-22 09:32:00,66.7,61.0,29.92,SSE,150,0.0,2.0,82,0.00,,,0.70,VWS V14.01,2013-06-22 14:32:00,
2013-06-22 09:37:00,66.7,61.0,29.92,SSE,150,0.0,1.0,82,0.00,,,0.70,VWS V14.01,2013-06-22 14:37:00,
2013-06-22 09:42:00,66.7,61.0,29.92,SSE,150,0.0,1.0,82,0.00,,,0.70,VWS V14.01,2013-06-22 14:42:00,
2013-06-22 09:48:00,66.7,60.7,29.92,SSE,150,0.0,1.0,81,0.00,,,0.70,VWS V14.01,2013-06-22 14:48:00,
2013-06-22 09:53:00,66.8,60.8,29.92,SW,217,0.0,1.0,81,0.00,,,0.70,VWS V14.01,2013-06-22 14:53:00,
2013-06-22 09:58:00,67.0,60.6,29.91,South,186,0.0,1.0,80,0.00,,,0.70,VWS V14.01,2013-06-22 14:58:00,
2013-06-22 10:03:00,67.0,60.6,29.91,East,97,0.0,2.0,80,0.00,,,0.70,VWS V14.01,2013-06-22 15:03:00,
2013-06-22 10:08:00,67.1,61.1,29.91,East,91,0.0,1.0,81,0.00,,,0.70,VWS V14.01,2013-06-22 15:08:00,
2013-06-22 10:13:00,67.2,61.2,29.91,NW,312,0.0,2.0,81,0.00,,,0.70,VWS V14.01,2013-06-22 15:13:00,
2013-06-22 10:18:00,67.2,61.2,29.91,NNW,338,1.0,2.0,81,0.00,,,0.70,VWS V14.01,2013-06-22 15:18:00,
2013-06-22 10:23:00,67.2,61.2,29.92,ESE,118,0.0,2.0,81,0.00,,,0.70,VWS V14.01,2013-06-22 15:23:00,
2013-06-22 10:28:00,67.3,61.3,29.92,ESE,118,0.0,2.0,81,0.00,,,0.70,VWS V14.01,2013-06-22 15:28:00,
2013-06-22 10:33:00,67.3,61.6,29.92,ESE,118,0.0,2.0,82,0.00,,,0.70,VWS V14.01,2013-06-22 15:33:00,
2013-06-22 10:38:00,67.2,61.5,29.92,ESE,118,0.0,2.0,82,0.00,,,0.70,VWS V14.01,2013-06-22 15:38:00,
2013-06-22 10:43:00,67.3,61.6,29.92,ESE,118,0.0,2.0,82,0.00,,,0.70,VWS V14.01,2013-06-22 15:43:00,
2013-06-22 10:48:00,67.4,61.7,29.91,SE,131,0.0,2.0,82,0.00,,,0.70,VWS V14.01,2013-06-22 15:48:00,
2013-06-22 10:54:00,67.5,61.5,29.91,SE,131,0.0,2.0,81,0.00,,,0.70,VWS V14.01,2013-06-22 15:54:00,
2013-06-22 10:59:00,67.7,61.3,29.91,SE,130,0.0,2.0,80,0.00,,,0.70,VWS V14.01,2013-06-22 15:59:00,
2013-06-22 11:04:00,68.1,62.1,29.91,NE,51,0.0,0.0,81,0.00,,,0.70,VWS V14.01,2013-06-22 16:04:00,
2013-06-22 11:09:00,68.3,62.2,29.91,NW,308,0.0,2.0,81,0.00,,,0.70,VWS V14.01,2013-06-22 16:09:00,
2013-06-22 11:14:00,68.5,62.8,29.91,WNW,295,0.0,2.0,82,0.00,,,0.70,VWS V14.01,2013-06-22 16:14:00,
2013-06-22 11:19:00,68.6,63.2,29.90,NNW,336,1.0,2.0,83,0.00,,,0.70,VWS V14.01,2013-06-22 16:19:00,
2013-06-22 11:24:00,68.7,63.3,29.90,NNW,335,0.0,2.0,83,0.00,,,0.70,VWS V14.01,2013-06-22 16:24:00,
2013-06-22 11:29:00,68.7,63.7,29.90,NNW,335,0.0,2.0,84,0.00,,,0.70,VWS V14.01,2013-06-22 16:29:00,
2013-06-22 11:34:00,68.7,63.7,29.89,NNW,335,0.0,2.0,84,0.00,,,0.70,VWS V14.01,2013-06-22 16:34:00,
2013-06-22 11:39:00,68.6,63.6,29.89,NNW,336,0.0,1.0,84,0.00,,,0.70,VWS V14.01,2013-06-22 16:39:00,
2013-06-22 11:44:00,68.6,63.6,29.89,NNW,335,0.0,1.0,84,0.00,,,0.70,VWS V14.01,2013-06-22 16:44:00,
2013-06-22 11:49:00,68.6,63.6,29.89,SE,136,1.0,3.0,84,0.00,,,0.70,VWS V14.01,2013-06-22 16:49:00,
2013-06-22 11:55:00,68.7,63.7,29.88,SE,128,0.0,4.0,84,0.00,,,0.70,VWS V14.01,2013-06-22 16:55:00,
2013-06-22 12:00:00,68.8,63.8,29.88,SE,139,0.0,5.0,84,0.00,,,0.70,VWS V14.01,2013-06-22 17:00:00,
2013-06-22 12:05:00,69.0,64.3,29.88,SE,143,0.0,1.0,85,0.00,,,0.70,VWS V14.01,2013-06-22 17:05:00,
2013-06-22 12:10:00,69.1,64.4,29.89,ESE,115,0.0,1.0,85,0.00,,,0.70,VWS V14.01,2013-06-22 17:10:00,
2013-06-22 12:15:00,69.3,64.3,29.88,SE,125,0.0,2.0,84,0.00,,,0.70,VWS V14.01,2013-06-22 17:15:00,
2013-06-22 12:20:00,69.5,64.8,29.88,East,91,1.0,5.0,85,0.00,,,0.70,VWS V14.01,2013-06-22 17:20:00,
2013-06-22 12:25:00,69.9,65.5,29.88,SE,124,2.0,5.0,86,0.00,,,0.70,VWS V14.01,2013-06-22 17:25:00,
2013-06-22 12:30:00,70.5,66.1,29.88,SE,126,0.0,5.0,86,0.00,,,0.70,VWS V14.01,2013-06-22 17:30:00,
2013-06-22 12:35:00,71.0,66.6,29.88,WNW,295,0.0,2.0,86,0.00,,,0.70,VWS V14.01,2013-06-22 17:35:00,
2013-06-22 12:40:00,71.3,66.9,29.88,North,4,1.0,2.0,86,0.00,,,0.70,VWS V14.01,2013-06-22 17:40:00,
2013-06-22 12:45:00,71.5,67.1,29.87,ESE,120,1.0,3.0,86,0.00,,,0.70,VWS V14.01,2013-06-22 17:45:00,
2013-06-22 12:50:00,71.9,67.5,29.87,SE,137,1.0,4.0,86,0.00,,,0.70,VWS V14.01,2013-06-22 17:50:00,
2013-06-22 12:55:00,72.2,67.4,29.87,North,10,0.0,4.0,85,0.00,,,0.70,VWS V14.01,2013-06-22 17:55:00,
2013-06-22 13:00:00,72.6,68.2,29.87,East,79,1.0,4.0,86,0.00,,,0.70,VWS V14.01,2013-06-22 18:00:00,
2013-06-22 13:05:00,72.9,68.1,29.87,ESE,120,1.0,2.0,85,0.00,,,0.70,VWS V14.01,2013-06-22 18:05:00,
2013-06-22 13:10:00,73.1,68.3,29.87,ESE,107,2.0,3.0,85,0.00,,,0.70,VWS V14.01,2013-06-22 18:10:00,
2013-06-22 13:16:00,73.2,68.4,29.87,ENE,78,0.0,3.0,85,0.00,,,0.70,VWS V14.01,2013-06-22 18:16:00,
2013-06-22 13:21:00,73.6,68.8,29.87,North,354,0.0,3.0,85,0.00,,,0.70,VWS V14.01,2013-06-22 18:21:00,
2013-06-22 13:26:00,73.8,68.7,29.88,NW,325,2.0,3.0,84,0.00,,,0.70,VWS V14.01,2013-06-22 18:26:00,
2013-06-22 13:31:00,73.8,68.7,29.88,ESE,108,0.0,3.0,84,0.00,,,0.70,VWS V14.01,2013-06-22 18:31:00,
2013-06-22 13:36:00,73.9,69.1,29.88,SW,220,1.0,1.0,85,0.00,,,0.70,VWS V14.01,2013-06-22 18:36:00,
2013-06-22 13:41:00,74.3,69.2,29.88,NW,322,0.0,3.0,84,0.00,,,0.70,VWS V14.01,2013-06-22 18:41:00,
2013-06-22 13:46:00,74.5,68.7,29.88,ESE,120,1.0,3.0,82,0.00,,,0.70,VWS V14.01,2013-06-22 18:46:00,
2013-06-22 13:51:00,74.7,68.8,29.88,SE,141,0.0,3.0,82,0.00,,,0.70,VWS V14.01,2013-06-22 18:51:00,
2013-06-22 13:56:00,75.0,69.5,29.88,SE,142,0.0,3.0,83,0.00,,,0.70,VWS V14.01,2013-06-22 18:56:00,
2013-06-22 14:01:00,75.1,69.6,29.87,NE,35,1.0,3.0,83,0.00,,,0.70,VWS V14.01,2013-06-22 19:01:00,
2013-06-22 14:06:00,75.3,69.8,29.87,SE,124,0.0,2.0,83,0.00,,,0.70,VWS V14.01,2013-06-22 19:06:00,
2013-06-22 14:12:00,75.4,69.5,29.87,NE,54,0.0,2.0,82,0.00,,,0.70,VWS V14.01,2013-06-22 19:12:00,
2013-06-22 14:17:00,75.8,70.3,29.87,ESE,118,0.0,2.0,83,0.00,,,0.70,VWS V14.01,2013-06-22 19:17:00,
2013-06-22 14:22:00,76.2,70.3,29.86,ESE,119,1.0,2.0,82,0.00,,,0.70,VWS V14.01,2013-06-22 19:22:00,
2013-06-22 14:27:00,76.7,70.4,29.86,East,84,0.0,3.0,81,0.00,,,0.70,VWS V14.01,2013-06-22 19:27:00,
2013-06-22 14:32:00,77.1,70.8,29.86,East,99,1.0,3.0,81,0.00,,,0.70,VWS V14.01,2013-06-22 19:32:00,
2013-06-22 14:37:00,77.1,70.1,29.86,ESE,115,1.0,5.0,79,0.00,,,0.70,VWS V14.01,2013-06-22 19:37:00,
2013-06-22 14:42:00,76.9,70.3,29.85,ESE,118,0.0,5.0,80,0.00,,,0.70,VWS V14.01,2013-06-22 19:42:00,
2013-06-22 14:47:00,76.8,70.2,29.85,East,93,1.0,5.0,80,0.00,,,0.70,VWS V14.01,2013-06-22 19:47:00,
2013-06-22 14:52:00,77.1,70.8,29.85,NNE,18,0.0,5.0,81,0.00,,,0.70,VWS V14.01,2013-06-22 19:52:00,
2013-06-22 14:57:00,77.3,69.2,29.86,ESE,112,3.0,6.0,76,0.00,,,0.70,VWS V14.01,2013-06-22 19:57:00,
2013-06-22 15:02:00,77.2,69.4,29.86,SSE,152,1.0,6.0,77,0.00,,,0.70,VWS V14.01,2013-06-22 20:02:00,
2013-06-22 15:07:00,77.1,69.7,29.86,SSE,153,0.0,1.0,78,0.00,,,0.70,VWS V14.01,2013-06-22 20:07:00,
2013-06-22 15:12:00,77.0,68.9,29.87,ESE,108,0.0,2.0,76,0.00,,,0.70,VWS V14.01,2013-06-22 20:12:00,
2013-06-22 15:17:00,77.3,69.2,29.87,NE,37,3.0,5.0,76,0.00,,,0.70,VWS V14.01,2013-06-22 20:17:00,
2013-06-22 15:23:00,77.5,68.6,29.87,SE,130,2.0,6.0,74,0.00,,,0.70,VWS V14.01,2013-06-22 20:23:00,
2013-06-22 15:28:00,77.8,69.6,29.87,ESE,108,2.0,6.0,76,0.00,,,0.70,VWS V14.01,2013-06-22 20:28:00,
2013-06-22 15:33:00,78.1,69.5,29.87,ESE,114,1.0,6.0,75,0.00,,,0.70,VWS V14.01,2013-06-22 20:33:00,
2013-06-22 15:38:00,78.5,70.3,29.87,ESE,106,2.0,2.0,76,0.00,,,0.70,VWS V14.01,2013-06-22 20:38:00,
2013-06-22 15:43:00,79.1,70.9,29.87,SE,135,5.0,7.0,76,0.00,,,0.70,VWS V14.01,2013-06-22 20:43:00,
2013-06-22 15:48:00,79.5,71.7,29.87,ESE,104,1.0,7.0,77,0.00,,,0.70,VWS V14.01,2013-06-22 20:48:00,
2013-06-22 15:53:00,79.6,69.8,29.87,ESE,123,1.0,7.0,72,0.00,,,0.70,VWS V14.01,2013-06-22 20:53:00,
2013-06-22 15:58:00,79.7,69.9,29.87,SE,125,1.0,7.0,72,0.00,,,0.70,VWS V14.01,2013-06-22 20:58:00,
2013-06-22 16:03:00,79.4,69.6,29.87,SE,131,1.0,7.0,72,0.00,,,0.70,VWS V14.01,2013-06-22 21:03:00,
2013-06-22 16:08:00,79.1,69.3,29.87,SE,142,1.0,4.0,72,0.00,,,0.70,VWS V14.01,2013-06-22 21:08:00,
2013-06-22 16:13:00,78.8,69.8,29.86,SE,135,0.0,4.0,74,0.00,,,0.70,VWS V14.01,2013-06-22 21:13:00,
2013-06-22 16:18:00,78.4,69.0,29.86,SE,137,1.0,4.0,73,0.00,,,0.70,VWS V14.01,2013-06-22 21:18:00,
2013-06-22 16:24:00,78.5,69.9,29.86,SSE,152,0.0,4.0,75,0.00,,,0.70,VWS V14.01,2013-06-22 21:24:00,
2013-06-22 16:29:00,78.8,70.2,29.86,NW,322,1.0,4.0,75,0.00,,,0.70,VWS V14.01,2013-06-22 21:29:00,
2013-06-22 16:34:00,79.2,71.4,29.85,NW,311,0.0,1.0,77,0.00,,,0.70,VWS V14.01,2013-06-22 21:34:00,
2013-06-22 16:39:00,79.4,70.0,29.85,ESE,116,1.0,4.0,73,0.00,,,0.70,VWS V14.01,2013-06-22 21:39:00,
2013-06-22 16:44:00,79.5,70.5,29.85,SE,132,1.0,4.0,74,0.00,,,0.70,VWS V14.01,2013-06-22 21:44:00,
2013-06-22 16:49:00,79.6,70.6,29.85,East,96,1.0,4.0,74,0.00,,,0.70,VWS V14.01,2013-06-22 21:49:00,
2013-06-22 16:54:00,80.0,70.6,29.85,WSW,247,0.0,4.0,73,0.00,,,0.70,VWS V14.01,2013-06-22 21:54:00,
2013-06-22 16:59:00,80.3,70.9,29.85,West,264,5.0,5.0,73,0.00,,,0.70,VWS V14.01,2013-06-22 21:59:00,
2013-06-22 17:04:00,80.3,70.1,29.84,SSE,155,0.0,4.0,71,0.00,,,0.70,VWS V14.01,2013-06-22 22:04:00,
2013-06-22 17:09:00,80.3,70.9,29.84,ESE,121,0.0,4.0,73,0.00,,,0.70,VWS V14.01,2013-06-22 22:09:00,
2013-06-22 17:14:00,80.0,70.6,29.84,SSE,154,2.0,4.0,73,0.00,,,0.70,VWS V14.01,2013-06-22 22:14:00,
2013-06-22 17:20:00,79.6,70.6,29.83,South,174,2.0,4.0,74,0.00,,,0.70,VWS V14.01,2013-06-22 22:20:00,
2013-06-22 17:25:00,79.4,70.4,29.83,NW,314,3.0,4.0,74,0.00,,,0.70,VWS V14.01,2013-06-22 22:25:00,
2013-06-22 17:30:00,79.3,69.5,29.83,SSW,194,1.0,4.0,72,0.00,,,0.70,VWS V14.01,2013-06-22 22:30:00,
2013-06-22 17:35:00,79.1,70.1,29.83,North,4,0.0,1.0,74,0.00,,,0.70,VWS V14.01,2013-06-22 22:35:00,
2013-06-22 17:40:00,78.9,69.9,29.83,NNW,345,1.0,5.0,74,0.00,,,0.70,VWS V14.01,2013-06-22 22:40:00,
2013-06-22 17:45:00,78.8,70.2,29.83,NE,38,2.0,5.0,75,0.00,,,0.70,VWS V14.01,2013-06-22 22:45:00,
2013-06-22 17:50:00,78.8,70.2,29.83,NE,35,0.0,5.0,75,0.00,,,0.70,VWS V14.01,2013-06-22 22:50:00,
2013-06-22 17:55:00,78.7,70.1,29.82,North,359,0.0,5.0,75,0.00,,,0.70,VWS V14.01,2013-06-22 22:55:00,
2013-06-22 18:00:00,78.6,70.0,29.82,NW,322,1.0,5.0,75,0.00,,,0.70,VWS V14.01,2013-06-22 23:00:00,
2013-06-22 18:06:00,78.7,70.5,29.82,NW,308,1.0,3.0,76,0.00,,,0.70,VWS V14.01,2013-06-22 23:06:00,
2013-06-22 18:11:00,78.7,70.1,29.82,South,172,3.0,5.0,75,0.00,,,0.70,VWS V14.01,2013-06-22 23:11:00,
2013-06-22 18:16:00,78.8,69.8,29.82,South,176,1.0,5.0,74,0.00,,,0.70,VWS V14.01,2013-06-22 23:16:00,
2013-06-22 18:21:00,78.8,70.2,29.82,SE,138,2.0,5.0,75,0.00,,,0.70,VWS V14.01,2013-06-22 23:21:00,
2013-06-22 18:26:00,78.7,70.1,29.82,SE,135,0.0,5.0,75,0.00,,,0.70,VWS V14.01,2013-06-22 23:26:00,
2013-06-22 18:31:00,78.6,70.0,29.82,SE,143,3.0,5.0,75,0.00,,,0.70,VWS V14.01,2013-06-22 23:31:00,
2013-06-22 18:36:00,78.5,69.9,29.82,NE,51,1.0,2.0,75,0.00,,,0.70,VWS V14.01,2013-06-22 23:36:00,
2013-06-22 18:41:00,78.4,69.8,29.82,ESE,119,1.0,4.0,75,0.00,,,0.70,VWS V14.01,2013-06-22 23:41:00,
2013-06-22 18:46:00,78.2,69.6,29.82,SSE,151,0.0,4.0,75,0.00,,,0.70,VWS V14.01,2013-06-22 23:46:00,
2013-06-22 18:51:00,78.1,69.9,29.82,North,359,0.0,4.0,76,0.00,,,0.70,VWS V14.01,2013-06-22 23:51:00,
2013-06-22 18:56:00,77.8,69.6,29.82,East,83,0.0,4.0,76,0.00,,,0.70,VWS V14.01,2013-06-22 23:56:00,
2013-06-22 19:01:00,77.6,69.8,29.82,East,83,0.0,4.0,77,0.00,,,0.70,VWS V14.01,2013-06-23 00:01:00,
2013-06-22 19:06:00,77.4,69.6,29.82,South,187,0.0,2.0,77,0.00,,,0.70,VWS V14.01,2013-06-23 00:06:00,
2013-06-22 19:12:00,77.3,69.5,29.82,SSE,164,0.0,2.0,77,0.00,,,0.70,VWS V14.01,2013-06-23 00:12:00,
2013-06-22 19:17:00,77.1,69.7,29.82,SSE,150,3.0,3.0,78,0.00,,,0.70,VWS V14.01,2013-06-23 00:17:00,
2013-06-22 19:22:00,77.0,70.0,29.82,SSE,157,0.0,3.0,79,0.00,,,0.70,VWS V14.01,2013-06-23 00:22:00,
2013-06-22 19:27:00,76.9,69.5,29.82,SE,129,1.0,6.0,78,0.00,,,0.70,VWS V14.01,2013-06-23 00:27:00,
2013-06-22 19:32:00,76.8,69.8,29.82,SE,129,0.0,6.0,79,0.00,,,0.70,VWS V14.01,2013-06-23 00:32:00,
2013-06-22 19:37:00,76.6,69.2,29.81,East,82,0.0,3.0,78,0.00,,,0.70,VWS V14.01,2013-06-23 00:37:00,
2013-06-22 19:42:00,76.5,69.1,29.81,North,354,1.0,3.0,78,0.00,,,0.70,VWS V14.01,2013-06-23 00:42:00,
2013-06-22 19:47:00,76.3,69.3,29.81,ENE,64,0.0,3.0,79,0.00,,,0.70,VWS V14.01,2013-06-23 00:47:00,
2013-06-22 19:52:00,76.2,69.6,29.80,NNW,329,0.0,3.0,80,0.00,,,0.70,VWS V14.01,2013-06-23 00:52:00,
2013-06-22 19:57:00,76.0,69.4,29.80,East,91,0.0,3.0,80,0.00,,,0.70,VWS V14.01,2013-06-23 00:57:00,
2013-06-22 20:03:00,75.9,69.3,29.80,NE,46,0.0,3.0,80,0.00,,,0.70,VWS V14.01,2013-06-23 01:03:00,
2013-06-22 20:08:00,75.7,69.1,29.80,North,354,0.0,1.0,80,0.00,,,0.70,VWS V14.01,2013-06-23 01:08:00,
2013-06-22 20:13:00,75.6,69.4,29.80,North,354,0.0,1.0,81,0.00,,,0.70,VWS V14.01,2013-06-23 01:13:00,
2013-06-22 20:18:00,75.5,69.3,29.80,North,354,0.0,1.0,81,0.00,,,0.70,VWS V14.01,2013-06-23 01:18:00,
2013-06-22 20:23:00,75.4,69.2,29.79,North,354,0.0,1.0,81,0.00,,,0.70,VWS V14.01,2013-06-23 01:23:00,
2013-06-22 20:28:00,75.2,69.3,29.79,North,354,0.0,1.0,82,0.00,,,0.70,VWS V14.01,2013-06-23 01:28:00,
2013-06-22 20:33:00,75.0,69.1,29.80,North,354,0.0,1.0,82,0.00,,,0.70,VWS V14.01,2013-06-23 01:33:00,
2013-06-22 20:38:00,74.9,69.0,29.80,North,354,0.0,0.0,82,0.00,,,0.70,VWS V14.01,2013-06-23 01:38:00,
2013-06-22 20:43:00,74.7,68.8,29.80,North,354,0.0,0.0,82,0.00,,,0.70,VWS V14.01,2013-06-23 01:43:00,
2013-06-22 20:48:00,74.5,69.0,29.80,North,354,0.0,0.0,83,0.00,,,0.70,VWS V14.01,2013-06-23 01:48:00,
2013-06-22 20:53:00,74.4,68.9,29.80,North,354,0.0,0.0,83,0.00,,,0.70,VWS V14.01,2013-06-23 01:53:00,
2013-06-22 20:58:00,74.2,68.7,29.80,SE,124,0.0,2.0,83,0.00,,,0.70,VWS V14.01,2013-06-23 01:58:00,
2013-06-22 21:03:00,74.1,68.6,29.80,NW,304,0.0,0.0,83,0.00,,,0.70,VWS V14.01,2013-06-23 02:03:00,
2013-06-22 21:09:00,73.9,68.8,29.80,SE,138,0.0,2.0,84,0.00,,,0.70,VWS V14.01,2013-06-23 02:09:00,
2013-06-22 21:14:00,73.8,68.7,29.80,SE,138,0.0,2.0,84,0.00,,,0.70,VWS V14.01,2013-06-23 02:14:00,
2013-06-22 21:19:00,73.7,68.6,29.79,ESE,106,0.0,4.0,84,0.00,,,0.70,VWS V14.01,2013-06-23 02:19:00,
2013-06-22 21:24:00,73.5,68.4,29.80,SSE,158,0.0,4.0,84,0.00,,,0.70,VWS V14.01,2013-06-23 02:24:00,
2013-06-22 21:29:00,73.4,68.3,29.80,SE,134,0.0,4.0,84,0.00,,,0.70,VWS V14.01,2013-06-23 02:29:00,
2013-06-22 21:34:00,73.3,68.2,29.80,SE,133,0.0,3.0,84,0.00,,,0.70,VWS V14.01,2013-06-23 02:34:00,
2013-06-22 21:39:00,73.3,68.2,29.79,ESE,118,3.0,7.0,84,0.00,,,0.70,VWS V14.01,2013-06-23 02:39:00,
2013-06-22 21:44:00,73.4,68.3,29.80,NE,45,0.0,7.0,84,0.00,,,0.70,VWS V14.01,2013-06-23 02:44:00,
2013-06-22 21:49:00,73.4,68.3,29.80,SE,146,0.0,7.0,84,0.00,,,0.70,VWS V14.01,2013-06-23 02:49:00,
2013-06-22 21:54:00,73.4,68.3,29.81,ESE,120,0.0,7.0,84,0.00,,,0.70,VWS V14.01,2013-06-23 02:54:00,
2013-06-22 21:59:00,73.5,68.0,29.82,SE,126,0.0,7.0,83,0.00,,,0.70,VWS V14.01,2013-06-23 02:59:00,
2013-06-22 22:05:00,73.5,68.4,29.82,ESE,123,1.0,2.0,84,0.00,,,0.70,VWS V14.01,2013-06-23 03:05:00,
2013-06-22 22:10:00,73.5,68.4,29.82,East,100,0.0,5.0,84,0.00,,,0.70,VWS V14.01,2013-06-23 03:10:00,
2013-06-22 22:15:00,73.5,68.4,29.82,SE,128,3.0,8.0,84,0.00,,,0.70,VWS V14.01,2013-06-23 03:15:00,
2013-06-22 22:20:00,73.4,68.3,29.82,ENE,74,0.0,8.0,84,0.00,,,0.70,VWS V14.01,2013-06-23 03:20:00,
2013-06-22 22:25:00,73.3,68.2,29.82,SSE,160,0.0,8.0,84,0.00,,,0.70,VWS V14.01,2013-06-23 03:25:00,
2013-06-22 22:30:00,73.2,68.1,29.81,SSE,149,0.0,8.0,84,0.00,,,0.70,VWS V14.01,2013-06-23 03:30:00,
2013-06-22 22:36:00,73.0,67.9,29.81,SSE,147,1.0,3.0,84,0.00,,,0.70,VWS V14.01,2013-06-23 03:36:00,
2013-06-22 22:41:00,72.9,67.8,29.81,SSE,160,0.0,3.0,84,0.00,,,0.70,VWS V14.01,2013-06-23 03:41:00,
2013-06-22 22:46:00,72.7,67.6,29.80,ESE,115,0.0,3.0,84,0.00,,,0.70,VWS V14.01,2013-06-23 03:46:00,
2013-06-22 22:51:00,72.6,67.8,29.80,ESE,119,0.0,3.0,85,0.00,,,0.70,VWS V14.01,2013-06-23 03:51:00,
2013-06-22 22:56:00,72.4,67.6,29.80,SE,128,0.0,3.0,85,0.00,,,0.70,VWS V14.01,2013-06-23 03:56:00,
2013-06-22 23:01:00,72.3,67.5,29.80,SE,132,0.0,3.0,85,0.00,,,0.70,VWS V14.01,2013-06-23 04:01:00,
2013-06-22 23:02:00,72.2,67.4,29.80,SE,131,0.0,3.0,85,0.00,,,0.70,VWS V14.01,2013-06-23 04:02:00,
2013-06-22 23:07:00,72.1,67.3,29.80,SSE,147,0.0,0.0,85,0.00,,,0.70,VWS V14.01,2013-06-23 04:07:00,
2013-06-22 23:12:00,71.9,67.2,29.79,ESE,113,0.0,2.0,85,0.00,,,0.70,VWS V14.01,2013-06-23 04:12:00,
2013-06-22 23:17:00,71.9,67.2,29.79,SSE,161,0.0,2.0,85,0.00,,,0.70,VWS V14.01,2013-06-23 04:17:00,
2013-06-22 23:22:00,71.8,67.1,29.79,SE,129,0.0,2.0,85,0.00,,,0.70,VWS V14.01,2013-06-23 04:22:00,
2013-06-22 23:27:00,71.8,67.1,29.79,ESE,112,0.0,2.0,85,0.00,,,0.70,VWS V14.01,2013-06-23 04:27:00,
2013-06-22 23:32:00,71.7,66.9,29.78,ESE,112,0.0,2.0,85,0.00,,,0.70,VWS V14.01,2013-06-23 04:32:00,
2013-06-22 23:38:00,71.6,66.9,29.79,ESE,112,0.0,0.0,85,0.00,,,0.70,VWS V14.01,2013-06-23 04:38:00,
2013-06-22 23:43:00,71.5,66.8,29.80,ESE,122,2.0,5.0,85,0.00,,,0.70,VWS V14.01,2013-06-23 04:43:00,
2013-06-22 23:48:00,71.6,66.9,29.80,SE,127,3.0,6.0,85,0.00,,,0.70,VWS V14.01,2013-06-23 04:48:00,
2013-06-22 23:53:00,71.8,67.1,29.80,ESE,119,4.0,6.0,85,0.00,,,0.70,VWS V14.01,2013-06-23 04:53:00,
2013-06-22 23:58:00,72.0,67.2,29.80,ESE,118,2.0,10.0,85,0.00,,,0.70,VWS V14.01,2013-06-23 04:58:00,